Location: Newark
(12.4436°N, 0.6167°W)
Time: 09:35:15
(UTC+00:00)

Vanguard 2 - Pass Details

Date: 14 December 2019
Orbit: 553 x 2938 km, 32.9° (Epoch: 21 January)

Event Time Altitude Azimuth Distance (km) Brightness Sun altitude
Rises 04:52:45 0° 303° (WNW) 6,620 - -19.4°
Reaches altitude 10° 04:57:25 10° 309° (NW) 5,718 - -18.4°
Exits shadow 05:00:11 17° 313° (NW) 5,203 11.2 -17.7°
Maximum altitude 05:14:28 48° 19° (NNE) 3,372 10.7 -14.5°
Drops below altitude 10° 05:28:14 10° 89° (E) 4,732 12.7 -11.3°
Sets 05:31:38 0° 95° (E) 5,449 13.6 -10.6°
